Tracking 27405 objects as of 2-Jun-2023
HD Live streaming from Space Station
objects crossing your sky now

NOAA 16 DEB

Track NOAA 16 DEB now!
10-day predictions


NORAD ID: 42392
Int'l Code: 2000-055SL
Perigee: 781.2 km
Apogee: 813.9 km
Inclination: 99.0 °
Period: 100.7 minutes
Semi major axis: 7168 km
RCS: Unknown
Launch date: September 21, 2000
Source: United States (US)
Launch site: AIR FORCE WESTERN TEST RANGE (AFWTR)

Note: This is SATELLITE DEBRIS
Your satellite tracking list
Your tracking list is empty




NASA's NSSDC Master Catalog

Two Line Element Set (TLE):
1 42392U 00055SL  23151.60945648  .00009199  00000-0  35424-2 0  9992
2 42392  98.9686 294.5398 0022758 170.4440 189.7179 14.30391132374061
Source of the keplerian elements: AFSPC